Regional Weather Roundup
Issued by NWS

Home | Current Version | Previous Version | Graphics & Text | Print | Product List | Glossary On
Versions: 1 2 3 4 5 6 7 8 9 10 11 12 13 14 15 16 17 18 19 20 21 22 23 24 25 26 27 28 29 30 31 32 33 34 35 36 37 38 39 40 41 42 43 44 45 46 47 48 49 50
000
ASUS43 KMPX 221910
RWRMN
WEATHER ROUNDUP FOR MINNESOTA
NATIONAL WEATHER SERVICE TWIN CITIES/CHANHASSEN MN
200 PM CDT TUE JUL 22 2014


NOTE: "FAIR" INDICATES FEW OR NO CLOUDS BELOW 12,000 FEET WITH NO
SIGNIFICANT WEATHER AND/OR OBSTRUCTIONS TO VISIBILITY. N/A MEANS
CURRENT SKY AND/OR WEATHER CONDITIONS ARE NOT AVAILABLE.

MNZ060>063-068>070-222000-
   Twin Cities Metro

CITY           SKY/WX    TMP DP  RH WIND       PRES   REMARKS
TWIN CITIES    MOSUNNY   82  64  54 NW13G20   30.01R
ST PAUL        PTSUNNY   80  65  59 N12       30.01R
CRYSTAL        MOSUNNY   82  63  52 NW10G17   30.01R
BLAINE         PTSUNNY   81  64  57 NW9       30.02R
LAKEVILLE      SUNNY     79  64  61 NW13      30.02R
EDEN PRAIRIE   MOSUNNY   82  65  56 NW13      30.01S
SOUTH ST PAUL  MOSUNNY   80  63  55 NW7       30.01R
LAKE ELMO      PTSUNNY   77  66  69 NW10G17   30.02R
$$
MNZ001>005-007-008-013>017-022>024-027-028-222000-
   Northwest Minnesota

CITY           SKY/WX    TMP DP  RH WIND       PRES   REMARKS
BEMIDJI        MOSUNNY   74  54  50 N13G18    30.10R
HALLOCK        MOSUNNY   73  54  49 NW13      30.14R
ROSEAU         SUNNY     73  54  49 NW10G22   30.11R
WARROAD        MOSUNNY   73  54  49 NW9G17    30.11R
THIEF RVR FALL SUNNY     73  52  46 NW14      30.14R
CROOKSTON      SUNNY     73  57  56 NW16      30.15R
FOSSTON        SUNNY     72  54  53 NW17G25   30.13R
DETROIT LAKES  SUNNY     73  54  49 N17G23    30.14R
MOORHEAD       SUNNY     75  63  64 N16       30.14S
PARK RAPIDS    SUNNY     77  49  37 N20G26    30.09R
$$
MNZ006-009>011-018-025>026-222000-
   North Central Minnesota

CITY           SKY/WX    TMP DP  RH WIND       PRES   REMARKS
BAUDETTE       SUNNY     73  54  51 N14G23    30.10R
FLAG ISLAND    SUNNY     72  46  40 N15G22    30.08R
INTL FALLS     MOSUNNY   73  55  53 N15       30.04R
WASKISH        MOSUNNY   75  55  50 NW13G21   30.08R
BIG FORK       SUNNY     75  52  43 NW10G16   30.05R
LONGVILLE      MOSUNNY   73  57  56 NW8G18    30.06R
GRAND RAPIDS   MOSUNNY   75  55  50 NW22G28   30.03R
CRANE LAKE     MOSUNNY   70  57  64 NW12G18   30.04R
ORR            MOSUNNY   72  57  60 NW8       30.01R
COOK           MOSUNNY   72  57  60 N9G17     30.02R
$$
MNZ012-019>021-037-222000-
   Northeast Minnesota

CITY           SKY/WX    TMP DP  RH WIND       PRES   REMARKS
DULUTH         MOSUNNY   77  59  53 NW15G24   29.98R
ELY            PTSUNNY   72  57  60 N13G20    30.00R
HIBBING        MOSUNNY   77  57  50 N23G29    30.01R
DULUTH HARBOR  MOSUNNY   79  61  53 N13G20    29.97R
TWO HARBORS    PTSUNNY   73  61  64 N9G17     29.94R
SILVER BAY     SUNNY     73  63  68 NW10G17   29.93R
GRAND MARAIS     N/A     72  59  63 VRB7G18   29.90R
G MARAIS ARPRT MOSUNNY   64  55  72 NW16G25   29.94R
$$
MNZ029>031-032-039>041-046>048-054>057-064-222000-
   West Central Minnesota

CITY           SKY/WX    TMP DP  RH WIND       PRES   REMARKS
FERGUS FALLS   PTSUNNY   73  52  46 N16G23    30.12R
WHEATON        PTSUNNY   73  57  56 N14       30.14R
MORRIS         PTSUNNY   75  57  53 N17G25    30.11R
ALEXANDRIA     PTSUNNY   75  56  51 N16G24    30.12R
ELBOW LAKE     FAIR      72  58  61 N16G24    30.11S
WADENA         MOSUNNY   75  54  46 N17G24    30.09S
GLENWOOD       MOSUNNY   79  57  47 NW16G26   30.10R
APPLETON       PTSUNNY   81  55  41 N20G28    30.11R
BENSON         MOSUNNY   79  59  50 N12G24    30.10R
MADISON        MOSUNNY   81  59  47 N18       30.11S
WILLMAR        FAIR      81  52  36 N13       30.10R
$$
MNZ033>034-036-042>043-049>051-058-059-222000-
   Central Minnesota

CITY           SKY/WX    TMP DP  RH WIND       PRES   REMARKS
ST CLOUD       SUNNY     82  58  43 N14G25    30.03R
SAUK CENTRE    FAIR      77  54  44 NW15G22   30.08R
PAYNESVILLE    HVY RAIN  78  54  42 NW10G22   30.08R
AITKIN         SUNNY     79  57  47 NW12G20   30.03R
PINE RIVER     MOSUNNY   75  55  50 NW14G21   30.09R
BRAINERD       MOSUNNY   77  52  41 NW20      30.06R
STAPLES        MOSUNNY   75  52  43 NW15      30.08R
LONG PRAIRIE   FAIR      73  54  49 NW14G20   30.09R
LITTLE FALLS   MOSUNNY   77  52  41 NW7G16    30.05S
LITCHFIELD     SUNNY     81  61  50 N14       30.07R
BUFFALO        SUNNY     80  59  49 NW10G20   30.05R
MAPLE LAKE     SUNNY     81  64  56 N9        30.05S
$$
MNZ037-044-045-052-053-222000-
   East Central Minnesota

CITY           SKY/WX    TMP DP  RH WIND       PRES   REMARKS
PRINCETON      MOSUNNY   81  63  54 NW13G18   30.03R
MORA           MOSUNNY   75  61  60 NW17      30.04R
CAMBRIDGE      MOSUNNY   81  63  54 NW15G21   30.01R
RUSH CITY      PTSUNNY   78  62  57 NW8G16    30.02R
MOOSE LAKE     MOSUNNY   77  59  53 N14G22    29.99R
HINCKLEY       MOCLDY    77  63  61 NW12G20   30.01R
CLOQUET        PTSUNNY   75  57  53 NW14G21   30.00R
MCGREGOR       SUNNY     77  59  53 NW15G23   30.02S
$$
MNZ071>073-080-081-089-090-097-098-222000-
   Southwest Minnesota

CITY           SKY/WX    TMP DP  RH WIND       PRES   REMARKS
MONTEVIDEO     MOSUNNY   81  61  50 NE16G23   30.11R
GRANITE FALLS  MOSUNNY   79  60  52 NW17      30.11R
CANBY          MOSUNNY   80  57  45 N10       30.13S
MARSHALL       SUNNY     79  59  50 N16G25    30.10S
REDWOOD FALLS  SUNNY     82  61  48 N13G20    30.08R
OLIVIA         MOSUNNY   79  55  44 N17       30.07R
PIPESTONE      MOSUNNY   79  55  44 NE15G22   30.14R
WINDOM         SUNNY     81  63  54 N14       30.09F
WORTHINGTON    MOSUNNY   79  63  57 N10G20    30.12S
JACKSON        MOSUNNY   79  63  57 NW9G18    30.10S
TRACY          SUNNY     78  61  55 N16       30.11S
SLAYTON        MOSUNNY   77  60  55 N15G22    30.12F
$$
MNZ065>067-074>077-082>085-091>093-222000-
   South Central Minnesota

CITY           SKY/WX    TMP DP  RH WIND       PRES   REMARKS
MANKATO        PTSUNNY   79  63  57 N12       30.06R
NEW ULM        SUNNY     79  64  61 N7        30.06R
ST JAMES       MOSUNNY   79  64  61 NW12      30.08S
FAIRMONT       PTSUNNY   81  63  54 NW10G20   30.08R
GLENCOE        SUNNY     81  60  48 N14       30.04R
FARIBAULT      MOSUNNY   82  61  47 NW7       30.04R
OWATONNA       MOSUNNY   81  64  57 NW12G18   30.05R
WASECA         PTSUNNY   79  63  57 NW12      30.07R
ALBERT LEA     MOSUNNY   81  66  61 NW8       30.05R
$$
MNZ078>079-086>088-094>096-222000-
   Southeast Minnesota

CITY           SKY/WX    TMP DP  RH WIND       PRES   REMARKS
ROCHESTER      MOSUNNY   81  67  62 NW10      30.03R
RED WING       PTSUNNY   84  64  51 N10       29.99R
STANTON        MOSUNNY   81  64  54 NW12      30.01R
DODGE CENTER   MOSUNNY   81  66  61 NW8G16    30.03S
WINONA         SUNNY     82  64  54 NW10      29.97R
AUSTIN         MOSUNNY   82  64  54 NW9G20    30.03R
PRESTON        MOSUNNY   80  73  78 NW8       30.02R
$$
ABBREVIATIONS USED IN REMARKS
   TC - TEMPERATURES IN CELSIUS
  WCI - WIND CHILL INDEX
   HX - HEAT INDEX
  VSB - VISIBILITY
$$


USA.gov is the U.S. government's official web portal to all federal, state and local government web resources and services.